Wind_Speed
8 9 11 12 11 11 10 11 7 2 2 4 1 5 5 6 7 8 8 8 4 2 2 4 5 5 4 4 3 3 4 5 5 5 5 5 6 6
9 8 8 10 11 10 9 8 5 4 2 4 5 3 6 6 7 7 7 6 5 5 5 5 4 2 3 4 5 5 5 5 6 6 7 6 6 7
8 8 7 8 9 8 7 5 3 3 2 1 1 1 3 3 4 5 7 7 6 6 5 4 2 2 3 3 4 5 6 5 6 7 7 7 7 9
9 8 8 7 7 7 6 4 4 2 2 2 3 2 1 2 3 3 4 4 4 5 5 3 1 1 2 4 5 5 4 5 7 7 7 8 9 9
9 8 8 7 6 5 5 4 3 3 2 3 4 3 3 3 2 3 4 5 4 4 4 3 2 3 3 4 4 5 5 6 8 9 9 9 8 8
8 6 5 4 5 4 4 2 1 1 3 5 5 4 4 4 6 4 4 5 4 4 5 6 4 3 4 4 4 5 6 9 9 8 7 6 7 10
9 6 4 3 4 3 4 3 1 1 4 5 5 3 2 2 3 3 3 3 4 5 12 7 5 5 6 5 4 5 7 8 6 5 7 9 10 12
10 9 8 6 4 4 2 2 1 1 1 3 4 4 4 4 2 2 3 2 0 3 11 2 4 4 10 11 12 6 3 4 5 8 11 11 15 15
15 14 12 9 7 4 1 3 1 1 1 3 5 4 5 3 2 1 2 1 1 5 7 2 2 9 13 11 3 3 4 7 11 10 12 13 14 17
17 16 14 13 11 9 7 4 2 3 2 3 3 4 3 3 2 1 1 3 2 2 7 1 6 10 12 6 7 5 6 11 12 13 14 16 18 17
20 19 18 16 13 12 11 9 6 5 3 4 5 6 4 3 2 3 2 1 1 0 6 6 5 12 6 3 3 3 16 7 16 20 15 14 15 16
22 20 19 18 16 15 15 14 13 11 9 7 6 5 4 2 1 1 1 2 2 1 3 6 6 10 6 3 6 14 10 12 25 15 14 14 14 18
26 24 23 20 19 18 16 16 15 11 11 9 7 6 6 4 3 2 3 2 2 1 0 6 4 3 4 7 12 12 10 27 18 13 12 15 18 18
30 28 25 22 22 20 18 16 13 12 13 12 11 10 9 8 6 4 5 5 5 7 7 9 4 3 5 7 8 15 24 23 15 12 22 20 21 22
31 28 24 23 22 22 20 19 15 17 15 14 13 12 10 8 7 6 5 5 5 6 6 5 7 7 8 10 13 17 21 15 18 18 28 27 26 31
29 26 23 23 24 25 22 20 20 20 18 17 14 11 11 10 6 6 4 4 4 5 1 3 4 8 12 15 18 22 18 10 26 27 28 27 30 29
25 24 22 23 26 25 25 25 23 22 21 18 16 15 14 11 8 6 6 4 3 3 6 5 5 7 12 17 20 19 19 21 23 26 27 26 29 25
22 20 22 23 24 24 24 25 27 25 25 22 19 17 16 14 10 9 9 8 7 6 7 9 11 14 10 6 10 13 17 18 28 27 26 21 24 27
23 20 20 22 24 24 24 24 25 29 25 23 22 19 17 13 11 12 11 9 8 7 7 8 9 11 2 3 13 9 10 27 26 24 22 22 25 30
24 22 22 24 24 23 23 25 22 23 24 24 21 19 18 16 15 14 13 11 9 7 8 7 7 8 6 5 11 21 17 21 24 24 26 27 29 30
25 25 23 22 21 21 23 23 23 24 23 24 22 20 19 18 17 16 14 11 9 11 9 7 7 9 13 15 11 16 19 19 20 26 27 25 24 25
20 23 23 23 26 27 26 26 25 25 25 26 25 24 22 20 19 17 16 13 12 10 9 9 10 11 11 10 14 17 20 25 24 23 24 22 21 5
24 25 23 25 26 28 28 28 28 26 27 27 27 25 22 20 19 17 16 13 12 10 8 8 10 10 11 14 15 16 20 23 22 27 31 19 20 17
Wind_Direction
326 328 321 314 317 320 328 326 319 305 328 2 88 31 44 48 65 65 71 92 109 82 15 322 293 309 318 323 336 3 2 1 2 358 344 345 343 327
315 315 302 296 298 301 309 310 321 301 273 349 30 39 71 79 85 85 81 75 60 44 24 13 13 42 41 39 26 17 3 3 3 2 350 339 330 315
299 299 295 302 302 303 303 302 312 322 290 116 46 103 63 65 58 56 45 34 26 25 31 24 74 56 29 10 359 349 354 2 358 354 349 338 328 323
311 302 284 293 294 313 321 336 6 12 279 148 154 160 98 77 67 52 49 45 41 42 38 34 102 38 4 2 352 354 353 348 359 353 344 331 327 318
306 306 302 298 295 309 317 332 360 22 64 160 143 138 110 87 91 79 74 49 61 71 69 63 26 352 355 359 4 359 355 13 353 343 337 331 329 334
296 300 302 299 292 295 300 326 344 1 66 103 107 116 118 97 101 65 44 34 78 54 29 351 330 343 56 48 15 13 5 343 341 342 339 340 316 318
281 281 291 299 321 291 276 311 337 98 110 106 110 111 100 116 100 69 59 52 117 23 2 21 50 55 45 20 18 333 335 341 349 353 339 329 321 317
254 252 254 267 305 338 11 15 347 207 168 160 148 143 139 130 113 76 59 89 342 324 347 44 36 23 352 335 316 332 344 21 358 331 321 314 318 316
239 234 238 247 242 244 202 149 147 57 124 192 162 156 156 160 157 115 32 354 293 343 353 307 337 344 344 343 33 50 51 6 344 330 323 316 313 310
237 243 241 240 239 230 223 226 196 162 150 138 150 135 159 146 155 176 319 316 317 24 11 269 322 337 354 63 77 48 348 339 344 336 323 314 313 311
234 232 233 232 229 228 220 218 209 192 159 149 151 153 157 166 202 202 189 87 140 242 8 347 338 333 335 162 178 328 331 344 342 328 323 317 317 314
235 235 230 231 229 224 223 218 218 214 200 188 174 169 177 164 85 118 145 149 160 141 9 357 359 1 334 281 262 315 325 325 331 333 327 323 323 321
237 233 229 227 227 227 229 226 228 228 212 215 209 205 206 223 237 274 295 292 217 243 51 344 319 346 306 311 303 323 326 329 339 345 343 327 321 318
243 240 237 229 229 225 223 227 225 215 211 213 213 213 218 220 233 275 293 289 280 275 277 289 265 279 304 301 291 310 325 327 329 326 339 330 318 317
249 244 241 232 232 227 220 221 210 218 216 217 220 224 229 230 243 267 263 273 274 283 276 263 271 285 276 268 283 300 323 317 326 321 323 326 318 320
247 245 240 231 228 227 219 215 216 223 223 224 226 227 218 214 241 250 251 272 300 174 248 277 265 264 275 282 286 288 296 299 317 323 325 317 318 318
228 231 223 220 214 218 218 219 220 221 224 224 220 215 209 219 238 236 232 254 248 290 312 333 323 302 284 282 280 281 291 304 318 320 324 314 314 315
207 212 218 212 207 209 211 217 223 222 226 223 219 217 214 225 231 222 227 242 250 277 299 328 339 345 338 307 274 292 310 313 319 323 321 300 305 312
219 219 217 213 217 214 210 212 214 222 227 220 221 224 222 228 219 226 228 239 253 274 286 307 318 325 305 291 286 281 303 312 314 306 306 300 298 304
223 223 218 216 216 213 209 215 215 221 222 221 220 222 219 223 220 225 228 232 242 256 276 295 307 317 301 289 302 296 321 315 311 303 305 303 299 301
220 228 226 221 217 210 213 218 221 223 220 218 217 217 216 219 224 229 230 232 239 248 248 283 298 305 301 305 291 297 317 323 318 301 303 302 305 305
236 230 232 230 216 211 214 216 216 218 208 212 214 215 215 217 219 226 227 228 240 255 267 291 306 311 309 298 290 299 311 323 332 329 323 301 289 294
238 238 234 232 222 212 211 215 215 209 207 211 211 212 212 212 221 226 225 228 233 245 266 291 303 302 304 305 302 303 307 312 321 324 331 347 337 321
Height
765 765 764 763 761 759 757 755 752 747 744 744 743 743 740 740 740 738 739 739 742 745 745 747 748 747 747 748 748 748 749 750 749 750 751 749 749 751
763 763 762 761 759 757 755 754 752 749 745 745 745 746 744 743 744 744 744 745 746 746 746 746 746 747 747 747 747 747 748 747 747 747 747 748 747 748
762 761 760 758 756 754 752 751 749 748 746 747 746 745 744 744 745 744 744 745 745 745 745 746 746 747 747 746 746 746 746 746 744 744 745 746 746 745
760 759 758 757 755 753 751 749 747 746 746 745 746 746 746 746 746 746 745 745 745 746 747 746 747 747 747 746 745 745 745 744 743 743 742 743 742 740
759 757 756 755 754 751 750 748 746 745 743 743 745 746 748 748 748 748 747 747 746 746 746 747 746 746 746 744 743 743 743 742 741 741 740 739 738 737
757 756 754 752 751 750 749 746 745 744 743 743 744 746 747 748 748 749 749 749 749 749 748 746 745 744 743 742 742 741 741 740 738 737 738 737 736 736
755 754 753 751 750 748 747 746 746 744 743 743 744 746 747 747 747 747 747 748 749 748 747 746 745 744 743 741 740 739 738 738 737 737 736 736 735 734
751 751 750 750 749 748 747 747 745 743 743 743 742 743 745 746 747 747 746 745 747 748 746 745 744 744 743 741 739 738 737 737 736 736 735 733 731 729
745 744 746 747 746 747 746 744 744 745 743 742 743 743 743 744 745 745 746 746 745 744 743 743 743 742 740 737 737 737 737 736 734 732 731 729 728 726
741 743 743 744 744 744 744 745 743 741 742 742 743 744 745 745 744 745 745 746 747 746 743 742 741 739 737 736 736 737 736 734 732 730 728 725 723 721
735 735 737 738 739 741 741 741 742 741 741 740 740 740 742 743 743 743 742 742 744 745 745 742 740 736 734 734 735 734 733 731 729 726 723 721 719 716
731 732 733 734 735 736 737 738 738 739 739 739 741 742 741 742 742 741 742 741 740 741 742 742 739 739 736 733 733 732 730 729 726 722 721 718 716 713
725 726 728 730 731 732 733 734 735 737 738 738 739 740 740 741 741 741 742 741 739 739 741 741 741 740 740 737 731 728 727 724 721 718 717 715 713 711
718 720 723 724 725 726 729 731 733 734 735 736 736 736 738 738 740 740 741 741 741 741 741 740 740 740 739 736 732 725 722 720 718 715 713 710 708 706
711 713 716 718 721 723 723 726 728 730 731 732 732 733 734 736 737 737 737 738 737 737 738 737 738 737 737 735 732 725 721 715 714 713 709 706 702 699
705 709 712 713 715 716 719 721 722 725 726 727 728 730 731 732 733 734 735 734 733 735 736 735 734 734 733 733 730 723 721 718 711 709 705 701 696 693
699 702 705 707 708 712 714 715 717 719 721 723 724 725 727 729 729 730 731 734 732 731 733 733 732 730 729 727 724 720 716 713 710 707 702 696 691 687
693 694 696 697 699 702 705 708 711 713 715 718 719 721 723 724 726 727 728 730 730 730 730 730 729 725 724 722 720 716 713 710 706 701 698 693 686 682
687 687 687 690 692 694 696 699 702 705 709 712 715 717 719 721 723 724 726 727 726 727 728 728 727 726 725 724 718 715 712 707 702 697 694 690 683 675
681 680 679 681 684 687 689 693 697 700 703 706 709 713 715 717 720 721 723 723 723 724 725 726 725 724 724 722 718 710 708 703 699 694 688 683 677 670
670 672 673 675 678 681 684 688 690 695 698 701 704 707 710 712 715 717 719 721 720 721 721 722 722 722 720 719 715 707 702 700 696 692 686 680 672 662
666 666 667 668 669 672 677 681 684 688 690 693 697 700 703 706 708 712 715 716 717 719 719 718 719 719 717 714 711 706 699 693 690 686 682 679 673 664
658 659 661 663 663 665 669 673 677 680 682 686 689 693 698 701 704 707 710 712 713 716 715 715 716 716 714 711 708 703 698 692 686 680 675 672 667 662